Regional Weather Roundup
Issued by NWS State College, PA

Home | Current Version | Previous Version | Text Only | Print | Product List | Glossary Off
Versions: 1 2 3 4 5 6 7 8 9 10 11 12 13 14 15 16 17 18 19 20 21 22 23 24 25 26 27 28 29 30 31 32 33 34 35 36 37 38 39 40 41 42 43 44 45 46 47 48 49 50

000
ASUS41 KCTP 280403
RWRCTP

REGIONAL WEATHER ROUNDUP
NATIONAL WEATHER SERVICE STATE COLLEGE PA
1200 AM EDT TUE APR 28 2015

Note: "fair" indicates few or no clouds below 12,000 feet with no
significant weather and/or obstructions to visibility.

* = STATION THAT DOES NOT REPORT PRECIPITATION /E.G. RAIN...SNOW...ETC/
    THUNDER OR FOG.

PAZ002>004-007>009-013>016-020>023-029>032-280500-
WESTERN PENNSYLVANIA

CITY           SKY/WX    TMP DP  RH WIND       PRES   REMARKS
ERIE           CLOUDY    43  37  79 VRB3      30.02S
MEADVILLE      CLOUDY    40  36  86 NW5       30.00S
FRANKLIN*      CLOUDY    39  34  81 W6        30.01S
NEW CASTLE     CLOUDY    41  37  85 CALM      30.04S
BEAVER COUNTY  NOT AVBL
BUTLER*        CLOUDY    39  36  87 NW5       30.03R
PITTSBURGH INT CLOUDY    42  36  79 NW10      30.02S
PITTSBURGH     CLOUDY    41  33  73 NW8       30.00S
INDIANA*       CLOUDY    41  37  87 NW6       30.02R
LATROBE        CLOUDY    41  36  81 CALM      30.02R
WASHINGTON CO* CLOUDY    41  34  75 CALM      30.04R
$$

PAZ004>006-010>012-017>019-024>028-033>037-041-042-045-046-049>053-280500-
CENTRAL PENNSYLVANIA

CITY           SKY/WX    TMP DP  RH WIND       PRES   REMARKS
BRADFORD       CLOUDY    38  35  89 NW7       29.94S
DUBOIS         CLOUDY    41  34  76 VRB5      29.95R
CLEARFIELD     CLOUDY    42  34  73 NW10      29.94R
JOHNSTOWN      MOCLDY    37  34  89 NW12      29.94R
ALTOONA        MOCLDY    42  33  70 VRB6      29.93S
STATE COLLEGE  CLOUDY    44  35  70 NW7       29.91S
WILLIAMSPORT   CLOUDY    48  37  65 W10       29.87F
SELINSGROVE    CLOUDY    49  36  61 N12       29.88R
FT INDIANTOWN  CLOUDY    49  34  55 NW13G23   29.84R
CAPITAL CITY   CLOUDY    49  35  58 NW8       29.87R
HARRISBURG     MOCLDY    51  34  52 NW14      29.86R
YORK           MOCLDY    44  36  73 W5        29.87R
$$

PAZ038>040-043-044-047-048-054-055-060>062-067>071-280500-
EASTERN PENNSYLVANIA

CITY           SKY/WX    TMP DP  RH WIND       PRES   REMARKS
SCRANTON       CLOUDY    46  38  73 N8G17     29.83S
MOUNT POCONO   CLOUDY    42  36  79 NW15G28   29.77S
ALLENTOWN      CLOUDY    50  36  58 NW7       29.80S
QUAKERTOWN*    CLOUDY    48  36  61 N7        29.80R
READING        CLOUDY    50  35  56 NW13      29.82R
LANCASTER      CLOUDY    48  34  58 NW9       29.84R
COATESVILLE    CLOUDY    48  34  57 NW10      29.82R
POTTSTOWN      CLOUDY    49  34  56 NW10      29.82R
BLUE BELL      PTCLDY    52  34  50 NW6       29.79R
DOYLESTOWN     CLOUDY    49  34  56 NW8       29.77S
WILLOW GROVE   NOT AVBL
NORTH PHILA    CLOUDY    53  32  44 NW14G20   29.80R
PHILADELPHIA   CLOUDY    53  33  46 NW10      29.80S
$$



USA.gov is the U.S. government's official web portal to all federal, state and local government web resources and services.